This demonstration page uses our WeatherBlox Daily Observations layout. Learn more.

Left ArrowRight Arrow

39.08367, -84.50855

Hourly Observations for January 6, 2021

Temp ( °F °C ) Dew Point ( °F °C ) Humidity (%) Winds ( mph kmh ) Pressure ( in mb ) Visibility ( mi km ) Precip ( " mm )
12:53 am 00:53 Cloudy 36 2.2 28 -2.2 73 73 WNW 5 7 30.26 1025 10 16.0934 0 0
1:53 am 01:53 Cloudy 36 2.2 28 -2.2 73 73 WNW 6 9 30.26 1025 10 16.0934 0 0
2:53 am 02:53 Cloudy 36 2.2 29 -1.7 76 76 WNW 6 9 30.28 1026 10 16.0934 0 0
3:53 am 03:53 Cloudy 36 2.2 28 -2.2 73 73 WNW 7 11 30.29 1026 10 16.0934 0 0
4:53 am 04:53 Cloudy 36 2.2 28 -2.2 73 73 WNW 7 11 30.29 1026 10 16.0934 0 0
5:53 am 05:53 Cloudy 36 2.2 28 -2.2 73 73 WNW 6 9 30.3 1026 10 16.0934 0 0
6:53 am 06:53 Cloudy 36 2.2 28 -2.2 73 73 NNW 5 7 30.31 1027 10 16.0934 0 0
7:09 am 07:09 Cloudy 36 2.2 29 -1.7 76 76 NNW 3 6 30.32 1027 10 16.0934 0 0
7:16 am 07:16 Cloudy 36 2.2 28 -2.2 73 73 NNW 3 6 30.33 1027 10 16.0934 0 0
7:53 am 07:53 Cloudy 36 2.2 29 -1.7 76 76 Calm 30.32 1027 10 16.0934 0 0
8:53 am 08:53 Cloudy 37 2.8 28 -2.2 70 70 NNW 3 6 30.35 1028 10 16.0934 0 0
9:53 am 09:53 Cloudy 38 3.3 28 -2.2 68 68 NNE 7 11 30.36 1028 10 16.0934 0 0
10:53 am 10:53 Cloudy 38 3.3 27 -2.8 65 65 N 8 13 30.36 1028 10 16.0934 0 0
11:53 am 11:53 Cloudy 39 3.9 27 -2.8 62 62 ENE 6 9 30.35 1028 10 16.0934 0 0
12:53 pm 12:53 Cloudy 39 3.9 27 -2.8 62 62 NNE 9 15 30.33 1027 10 16.0934 0 0
1:53 pm 13:53 Cloudy 39 3.9 26 -3.3 60 60 NNE 5 7 30.32 1027 10 16.0934 0 0
2:53 pm 14:53 Cloudy 39 3.9 26 -3.3 60 60 NNE 3 6 30.33 1027 10 16.0934 0 0
3:53 pm 15:53 Cloudy 39 3.9 26 -3.3 60 60 VRB 5 7 30.33 1027 10 16.0934 0 0
4:53 pm 16:53 Cloudy 38 3.3 25 -3.9 60 60 N 7 11 30.33 1027 10 16.0934 0 0
5:53 pm 17:53 Cloudy 37 2.8 26 -3.3 65 65 N 6 9 30.33 1027 10 16.0934 0 0
6:53 pm 18:53 Cloudy 37 2.8 26 -3.3 65 65 NNE 8 13 30.35 1028 10 16.0934 0 0
7:53 pm 19:53 Cloudy 37 2.8 25 -3.9 62 62 ENE 8 13 30.36 1028 10 16.0934 0 0
8:53 pm 20:53 Cloudy 36 2.2 26 -3.3 67 67 Calm 30.36 1028 10 16.0934 0 0
9:53 pm 21:53 Cloudy 35 1.7 27 -2.8 72 72 Calm 30.36 1028 10 16.0934 0 0
10:53 pm 22:53 Cloudy 35 1.7 27 -2.8 72 72 Calm 30.35 1028 10 16.0934 0 0
11:53 pm 23:53 Cloudy 35 1.7 28 -2.2 76 76 NE 3 6 30.33 1027 10 16.0934 0 0

Powered by AerisWeather